Location: 22
(39.7117°N, 89.5929°W)
Time: 06:41:11
(UTC-05:00)

A-11 Canister half - Pass Details

Date: 01 February 2023
Orbit: 1526 x 1682 km, 47.3° (Epoch: 01 April)

Event Time Altitude Azimuth Distance (km) Brightness Sun altitude
Exits shadow 03:25:22 - 169° (SSE) 4,207 11.3 -42.6°
Reaches altitude 10° 03:28:06 10° 155° (SSE) 3,687 11.0 -42.1°
Maximum altitude 03:32:53 15° 123° (ESE) 3,279 11.0 -41.2°
Drops below altitude 10° 03:37:40 10° 92° (E) 3,694 11.6 -40.3°
Sets 03:42:24 0° 71° (ENE) 4,693 12.4 -39.4°
